| time (UTC) | temp F | wind direction | speed MPH | gust MPH | rain 1hr in | rain 24hr in | rain mn in | humidity % | barometer mb |
| 20260904095133 | 67 | 183 | 1.0 | 2.0 | 0.00 | 0.86 | 0.00 | 96 | 1014.9 |
| 20260904094132 | 67 | 232 | 1.0 | 1.0 | 0.00 | 0.86 | 0.00 | 96 | 1015.3 |
| 20260904093131 | 67 | 82 | 0.0 | 1.0 | 0.00 | 0.86 | 0.00 | 96 | 1015.3 |
| 20260904092131 | 67 | 82 | 0.0 | 2.0 | 0.00 | 0.86 | 0.00 | 96 | 1015.7 |
| 20260904091059 | 67 | 82 | 0.0 | 2.0 | 0.00 | 0.86 | 0.00 | 96 | 1015.4 |
| 20260904090058 | 67 | 82 | 0.0 | 2.0 | 0.00 | 0.86 | 0.00 | 96 | 1015.4 |
| 20260904085057 | 67 | 82 | 0.0 | 2.0 | 0.00 | 0.86 | 0.00 | 96 | 1015.4 |
| 20260904084025 | 67 | 82 | 0.0 | 2.0 | 0.00 | 0.86 | 0.00 | 96 | 1015.5 |
| 20260904083024 | 67 | 82 | 1.0 | 2.0 | 0.00 | 0.86 | 0.00 | 96 | 1015.1 |
| 20260904082023 | 67 | 173 | 0.0 | 1.0 | 0.00 | 0.86 | 0.00 | 96 | 1015.2 |
| 20260904081023 | 67 | 116 | 1.0 | 2.0 | 0.00 | 0.86 | 0.00 | 96 | 1015.2 |
| 20260904080022 | 67 | 116 | 0.0 | 2.0 | 0.00 | 0.86 | 0.00 | 96 | 1015.5 |
| 20260904075021 | 67 | 116 | 0.0 | 2.0 | 0.00 | 0.86 | 0.00 | 96 | 1015.6 |
| 20260904073949 | 68 | 116 | 1.0 | 2.0 | 0.00 | 0.86 | 0.00 | 95 | 1015.6 |
| 20260904072917 | 68 | 116 | 0.0 | 2.0 | 0.00 | 0.86 | 0.00 | 96 | 1015.6 |
| 20260904071916 | 68 | 116 | 0.0 | 2.0 | 0.00 | 0.86 | 0.00 | 95 | 1015.6 |
| 20260904070915 | 68 | 116 | 2.0 | 2.0 | 0.00 | 0.86 | 0.00 | 96 | 1015.6 |
| 20260904065914 | 68 | 116 | 0.0 | 0.0 | 0.00 | 0.86 | 0.00 | 96 | 1015.6 |
| 20260904064843 | 68 | 116 | 0.0 | 0.0 | 0.00 | 0.86 | 0.00 | 96 | 1015.6 |
| 20260904063811 | 68 | 116 | 0.0 | 2.0 | 0.00 | 0.86 | 0.00 | 96 | 1015.9 |
| 20260904062810 | 68 | 116 | 0.0 | 2.0 | 0.00 | 0.86 | 0.00 | 96 | 1015.9 |
| 20260904061810 | 68 | 99 | 0.0 | 2.0 | 0.00 | 0.86 | 0.00 | 96 | 1015.6 |
| 20260904060809 | 68 | 99 | 1.0 | 3.0 | 0.00 | 0.86 | 0.00 | 96 | 1015.5 |
| 20260904055808 | 68 | 92 | 1.0 | 6.0 | 0.00 | 0.86 | 0.00 | 96 | 1015.9 |
| 20260904054807 | 68 | 113 | 0.0 | 6.0 | 0.00 | 0.86 | 0.00 | 96 | 1015.6 |
| 20260904053807 | 68 | 276 | 1.0 | 3.0 | 0.00 | 0.86 | 0.00 | 95 | 1015.6 |
| 20260904052806 | 69 | 275 | 2.0 | 3.0 | 0.00 | 0.86 | 0.00 | 95 | 1015.6 |
| 20260904051734 | 69 | 250 | 1.0 | 4.0 | 0.00 | 0.86 | 0.00 | 95 | 1015.5 |
| 20260904050733 | 69 | 233 | 1.0 | 4.0 | 0.00 | 0.86 | 0.00 | 96 | 1015.6 |
| 20260904045700 | 68 | 195 | 2.0 | 3.0 | 0.00 | 0.86 | 0.00 | 95 | 1015.5 |
| 20260904044659 | 69 | 168 | 1.0 | 5.0 | 0.00 | 0.86 | 0.00 | 95 | 1015.5 |
| 20260904043658 | 69 | 235 | 2.0 | 5.0 | 0.00 | 0.86 | 0.00 | 95 | 1015.5 |
| 20260904042657 | 69 | 238 | 1.0 | 4.0 | 0.00 | 0.86 | 0.00 | 95 | 1015.4 |
| 20260904041657 | 69 | 209 | 2.0 | 4.0 | 0.00 | 0.86 | 0.00 | 95 | 1015.5 |
| 20260904040656 | 69 | 219 | 1.0 | 2.0 | 0.00 | 0.86 | 0.00 | 95 | 1015.5 |
| 20260904035624 | 69 | 106 | 0.0 | 2.0 | 0.00 | 0.86 | 0.86 | 95 | 1015.4 |
| 20260904034623 | 69 | 173 | 1.0 | 2.0 | 0.00 | 0.86 | 0.86 | 95 | 1015.4 |
| 20260904033551 | 69 | 103 | 1.0 | 3.0 | 0.00 | 0.86 | 0.86 | 95 | 1015.1 |
| 20260904032551 | 69 | 213 | 1.0 | 3.0 | 0.00 | 0.86 | 0.86 | 95 | 1015.1 |
| 20260904031550 | 69 | 199 | 1.0 | 5.0 | 0.00 | 0.86 | 0.86 | 95 | 1015.1 |
| 20260904030518 | 69 | 223 | 3.0 | 6.0 | 0.00 | 0.86 | 0.86 | 95 | 1015.0 |
| 20260904025446 | 69 | 212 | 3.0 | 6.0 | 0.00 | 0.86 | 0.86 | 94 | 1015.0 |
| 20260904024445 | 69 | 224 | 1.0 | 7.0 | 0.00 | 0.86 | 0.86 | 95 | 1015.0 |
| 20260904023443 | 69 | 215 | 2.0 | 7.0 | 0.00 | 0.86 | 0.86 | 95 | 1015.0 |
| 20260904022442 | 69 | 230 | 3.0 | 8.0 | 0.00 | 0.86 | 0.86 | 94 | 1015.0 |
| 20260904021441 | 69 | 219 | 3.0 | 8.0 | 0.00 | 0.86 | 0.86 | 94 | 1014.6 |
| 20260904020440 | 69 | 230 | 2.0 | 8.0 | 0.00 | 0.86 | 0.86 | 94 | 1014.6 |
| 20260904015408 | 69 | 222 | 3.0 | 8.0 | 0.00 | 0.86 | 0.86 | 94 | 1014.6 |
| 20260904014407 | 69 | 218 | 4.0 | 10.0 | 0.00 | 0.86 | 0.86 | 95 | 1014.6 |
| 20260904013406 | 69 | 232 | 5.0 | 9.0 | 0.00 | 0.86 | 0.86 | 95 | 1014.6 |
| 20260904012405 | 69 | 230 | 4.0 | 7.0 | 0.00 | 0.86 | 0.86 | 95 | 1014.6 |
| 20260904011404 | 69 | 227 | 3.0 | 7.0 | 0.00 | 0.86 | 0.86 | 95 | 1014.6 |
| 20260904010403 | 69 | 238 | 2.0 | 5.0 | 0.00 | 0.86 | 0.86 | 95 | 1014.6 |
| 20260904005402 | 69 | 230 | 2.0 | 6.0 | 0.00 | 0.86 | 0.86 | 95 | 1014.6 |
| 20260904004401 | 69 | 207 | 2.0 | 6.0 | 0.00 | 0.86 | 0.86 | 95 | 1014.5 |
| 20260904003400 | 69 | 220 | 2.0 | 5.0 | 0.01 | 0.86 | 0.86 | 95 | 1014.8 |
| 20260904002359 | 69 | 222 | 2.0 | 5.0 | 0.01 | 0.86 | 0.86 | 95 | 1014.8 |
| 20260904001358 | 69 | 192 | 1.0 | 5.0 | 0.04 | 0.86 | 0.86 | 95 | 1014.8 |
| 20260904000256 | 69 | 190 | 2.0 | 4.0 | 0.05 | 0.86 | 0.86 | 95 | 1014.8 |
| 20260903235254 | 69 | 202 | 1.0 | 4.0 | 0.09 | 0.86 | 0.86 | 95 | 1015.1 |
| 20260903234222 | 69 | 155 | 1.0 | 6.0 | 0.10 | 0.86 | 0.86 | 95 | 1015.1 |
| 20260903233149 | 69 | 149 | 3.0 | 8.0 | 0.13 | 0.85 | 0.85 | 94 | 1015.4 |
| 20260903232147 | 69 | 97 | 3.0 | 11.0 | 0.52 | 0.84 | 0.84 | 94 | 1015.5 |
| 20260903231146 | 69 | 119 | 3.0 | 11.0 | 0.82 | 0.82 | 0.82 | 94 | 1015.1 |
| 20260903230144 | 70 | 61 | 6.0 | 16.0 | 0.81 | 0.81 | 0.81 | 94 | 1015.1 |
| 20260903225041 | 70 | 47 | 7.0 | 20.0 | 0.76 | 0.76 | 0.76 | 94 | 1016.5 |
| 20260903224041 | 70 | 42 | 8.0 | 24.0 | 0.76 | 0.76 | 0.76 | 93 | 1016.1 |
| 20260903223039 | 70 | 56 | 12.0 | 24.0 | 0.70 | 0.70 | 0.70 | 92 | 1016.5 |
| 20260903222038 | 72 | 3 | 15.0 | 39.0 | 0.26 | 0.26 | 0.26 | 89 | 1017.2 |
| 20260903221037 | 75 | 52 | 16.0 | 39.0 | 0.00 | 0.00 | 0.00 | 80 | 1015.6 |
| 20260903220036 | 83 | 23 | 20.0 | 33.0 | 0.00 | 0.00 | 0.00 | 82 | 1013.9 |
| 20260903215004 | 84 | 52 | 1.0 | 3.0 | 0.00 | 0.00 | 0.00 | 81 | 1013.2 |
| 20260903214003 | 84 | 38 | 2.0 | 5.0 | 0.00 | 0.00 | 0.00 | 80 | 1013.6 |
| 20260903213002 | 85 | 74 | 2.0 | 6.0 | 0.00 | 0.00 | 0.00 | 78 | 1013.6 |
| 20260903212001 | 86 | 60 | 3.0 | 5.0 | 0.00 | 0.00 | 0.00 | 77 | 1013.9 |
| 20260903211000 | 87 | 58 | 3.0 | 5.0 | 0.00 | 0.00 | 0.00 | 76 | 1013.7 |
| 20260903205959 | 89 | 67 | 3.0 | 9.0 | 0.00 | 0.00 | 0.00 | 73 | 1013.0 |
| 20260903204958 | 90 | 343 | 6.0 | 10.0 | 0.00 | 0.00 | 0.00 | 63 | 1013.0 |
| 20260903202617 | 91 | 317 | 9.0 | 14.0 | 0.00 | 0.00 | 0.00 | 61 | 1012.4 |
| 20260903201616 | 92 | 294 | 6.0 | 17.0 | 0.00 | 0.00 | 0.00 | 60 | 1012.1 |
| 20260903200616 | 93 | 301 | 9.0 | 17.0 | 0.00 | 0.00 | 0.00 | 59 | 1012.1 |
| 20260903195615 | 93 | 292 | 5.0 | 14.0 | 0.00 | 0.00 | 0.00 | 58 | 1012.4 |
| 20260903194614 | 93 | 316 | 7.0 | 14.0 | 0.00 | 0.00 | 0.00 | 61 | 1012.8 |
| 20260903193613 | 94 | 309 | 8.0 | 14.0 | 0.00 | 0.00 | 0.00 | 62 | 1013.2 |
| 20260903192612 | 93 | 328 | 5.0 | 11.0 | 0.00 | 0.00 | 0.00 | 63 | 1013.5 |
| 20260903191611 | 93 | 295 | 6.0 | 11.0 | 0.00 | 0.00 | 0.00 | 61 | 1013.8 |
| 20260903190610 | 92 | 312 | 4.0 | 12.0 | 0.00 | 0.00 | 0.00 | 63 | 1014.2 |
| 20260903185538 | 92 | 297 | 5.0 | 12.0 | 0.00 | 0.00 | 0.00 | 61 | 1014.2 |
| 20260903184538 | 92 | 291 | 4.0 | 11.0 | 0.00 | 0.00 | 0.00 | 60 | 1014.2 |
| 20260903183536 | 92 | 312 | 6.0 | 11.0 | 0.00 | 0.00 | 0.00 | 62 | 1014.2 |
| 20260903182535 | 92 | 284 | 7.0 | 13.0 | 0.00 | 0.00 | 0.00 | 61 | 1014.2 |
| 20260903181535 | 92 | 299 | 7.0 | 12.0 | 0.00 | 0.00 | 0.00 | 66 | 1014.3 |
| 20260903180503 | 92 | 313 | 7.0 | 11.0 | 0.00 | 0.00 | 0.00 | 64 | 1014.3 |
| 20260903175502 | 92 | 298 | 7.0 | 12.0 | 0.00 | 0.00 | 0.00 | 64 | 1014.6 |
| 20260903174501 | 92 | 309 | 6.0 | 10.0 | 0.00 | 0.00 | 0.00 | 61 | 1014.6 |
| 20260903173500 | 92 | 316 | 3.0 | 12.0 | 0.00 | 0.00 | 0.00 | 65 | 1015.0 |
| 20260903172458 | 92 | 307 | 3.0 | 12.0 | 0.00 | 0.00 | 0.00 | 66 | 1015.0 |
| 20260903171426 | 92 | 303 | 6.0 | 9.0 | 0.00 | 0.00 | 0.00 | 63 | 1015.3 |
| 20260903170425 | 91 | 341 | 2.0 | 7.0 | 0.00 | 0.00 | 0.00 | 68 | 1015.3 |
| 20260903165424 | 90 | 303 | 2.0 | 5.0 | 0.00 | 0.00 | 0.00 | 68 | 1015.3 |
| 20260903164423 | 89 | 307 | 3.0 | 7.0 | 0.00 | 0.00 | 0.00 | 70 | 1015.3 |
| 20260903163422 | 88 | 344 | 4.0 | 7.0 | 0.00 | 0.00 | 0.00 | 70 | 1015.6 |
| 20260903162422 | 88 | 301 | 4.0 | 7.0 | 0.00 | 0.00 | 0.00 | 71 | 1015.9 |
| 20260903161421 | 89 | 284 | 4.0 | 7.0 | 0.00 | 0.00 | 0.00 | 72 | 1015.9 |
| 20260903160420 | 88 | 312 | 3.0 | 7.0 | 0.00 | 0.00 | 0.00 | 72 | 1015.5 |
| 20260903155419 | 88 | 271 | 5.0 | 9.0 | 0.00 | 0.00 | 0.00 | 72 | 1015.5 |
| 20260903154419 | 88 | 283 | 3.0 | 9.0 | 0.00 | 0.00 | 0.00 | 70 | 1015.5 |
| 20260903153418 | 87 | 294 | 3.0 | 10.0 | 0.00 | 0.00 | 0.00 | 71 | 1015.5 |
| 20260903152417 | 87 | 298 | 3.0 | 10.0 | 0.00 | 0.00 | 0.00 | 71 | 1015.5 |
| 20260903151416 | 86 | 328 | 3.0 | 9.0 | 0.00 | 0.00 | 0.00 | 76 | 1015.8 |
| 20260903150416 | 85 | 313 | 5.0 | 10.0 | 0.00 | 0.00 | 0.00 | 72 | 1015.4 |
| 20260903145415 | 84 | 310 | 5.0 | 10.0 | 0.00 | 0.00 | 0.00 | 74 | 1015.4 |
| 20260903144343 | 84 | 321 | 4.0 | 9.0 | 0.00 | 0.00 | 0.00 | 75 | 1015.7 |
| 20260903143342 | 83 | 293 | 5.0 | 9.0 | 0.00 | 0.00 | 0.00 | 78 | 1015.4 |
| 20260903142341 | 82 | 294 | 4.0 | 8.0 | 0.00 | 0.00 | 0.00 | 78 | 1015.7 |
| 20260903141341 | 81 | 307 | 4.0 | 8.0 | 0.00 | 0.00 | 0.00 | 79 | 1015.6 |
| 20260903140340 | 81 | 289 | 3.0 | 8.0 | 0.00 | 0.00 | 0.00 | 80 | 1015.6 |
| 20260903135339 | 81 | 303 | 5.0 | 8.0 | 0.00 | 0.00 | 0.00 | 80 | 1015.3 |
| 20260903134338 | 80 | 297 | 3.0 | 7.0 | 0.00 | 0.00 | 0.00 | 80 | 1015.3 |
| 20260903133337 | 80 | 302 | 2.0 | 8.0 | 0.00 | 0.00 | 0.00 | 82 | 1015.6 |
| 20260903132336 | 80 | 295 | 5.0 | 8.0 | 0.00 | 0.00 | 0.00 | 81 | 1015.6 |
| 20260903131336 | 80 | 296 | 4.0 | 8.0 | 0.00 | 0.00 | 0.00 | 81 | 1015.6 |
| 20260903130335 | 80 | 287 | 4.0 | 8.0 | 0.00 | 0.00 | 0.00 | 81 | 1016.0 |
| 20260903125334 | 80 | 260 | 2.0 | 6.0 | 0.00 | 0.00 | 0.00 | 82 | 1016.0 |
| 20260903124333 | 79 | 234 | 2.0 | 4.0 | 0.00 | 0.00 | 0.00 | 85 | 1016.0 |
| 20260903123333 | 77 | 249 | 1.0 | 2.0 | 0.00 | 0.00 | 0.00 | 88 | 1015.9 |
| 20260903122332 | 76 | 251 | 1.0 | 2.0 | 0.00 | 0.00 | 0.00 | 90 | 1015.9 |
| 20260903121331 | 75 | 251 | 1.0 | 2.0 | 0.00 | 0.00 | 0.00 | 91 | 1015.9 |
| 20260903120330 | 74 | 238 | 1.0 | 2.0 | 0.00 | 0.00 | 0.00 | 91 | 1015.9 |
| 20260903115328 | 74 | 171 | 1.0 | 2.0 | 0.00 | 0.00 | 0.00 | 90 | 1015.9 |
| 20260903114256 | 74 | 101 | 0.0 | 2.0 | 0.00 | 0.00 | 0.00 | 89 | 1015.9 |
| 20260903113255 | 75 | 118 | 1.0 | 2.0 | 0.00 | 0.00 | 0.00 | 89 | 1016.0 |
| 20260903112254 | 75 | 190 | 1.0 | 4.0 | 0.00 | 0.00 | 0.00 | 88 | 1015.7 |
| 20260903111253 | 76 | 213 | 1.0 | 6.0 | 0.00 | 0.00 | 0.00 | 88 | 1015.7 |
| 20260903110149 | 76 | 49 | 3.0 | 10.0 | 0.00 | 0.00 | 0.00 | 88 | 1015.7 |
| 20260903105148 | 75 | 325 | 3.0 | 11.0 | 0.00 | 0.00 | 0.00 | 87 | 1015.4 |
| 20260903104147 | 75 | 105 | 5.0 | 11.0 | 0.00 | 0.00 | 0.00 | 89 | 1015.4 |
| 20260903103146 | 75 | 273 | 1.0 | 2.0 | 0.00 | 0.00 | 0.00 | 91 | 1015.0 |
| 20260903102114 | 74 | 294 | 1.0 | 3.0 | 0.00 | 0.00 | 0.00 | 90 | 1015.0 |
| 20260903101113 | 74 | 260 | 1.0 | 3.0 | 0.00 | 0.00 | 0.00 | 91 | 1015.1 |
| 20260903100112 | 74 | 277 | 1.0 | 3.0 | 0.00 | 0.00 | 0.00 | 91 | 1015.1 |